Location: Indian Tree Observatory
(39.4030°N, 104.5929°W)
Time: 02:39:46
(UTC-06:00)

Envisat - Visible Passes

Search period start: 19 April 2019 00:00
Search period end: 29 April 2019 00:00
Orbit: 764 x 766 km, 98.2° (Epoch: 18 April)

Date Brightness Start Highest point End Pass type
(mag) Time Alt. Az. Time Alt. Az. Time Alt. Az.
19 Apr 5.0 20:20:07 10° SSW 20:24:33 30° W 20:29:02 10° NW visible
21 Apr 5.7 20:47:00 10° SW 20:50:17 17° W 20:53:36 10° NW visible
22 Apr 4.6 20:08:34 10° SSW 20:13:16 39° W 20:18:01 10° NNW visible
24 Apr 5.5 20:35:05 10° SW 20:38:57 22° W 20:42:52 10° NW visible
26 Apr 6.0 21:02:51 10° WSW 21:04:46 12° W 21:06:40 10° WNW visible
27 Apr 5.2 20:23:21 10° SSW 20:27:39 28° W 20:31:59 10° NW visible
